Саят

Туркменистан     38°46′49″N   63°52′48″E
темп.,
°C
ветер,
м/с
пор.,
м/с
влажн.,
%
обл.,
%
осадки,
мм/ч
давл.,
гПа
погр.,
м
21 апреля, ср
ср2123:00+22ссз7103338 0.0 1014598
02:00+20с593842 0.0 1015348
05:00+18ссз464416 0.0 1016162
08:00+19ссз56405 0.0 1018439
11:00+22ссз44315 0.0 10181189
14:00+24с66260 0.0 10181818
17:00+24с87200 0.0 10181857
20:00+20ссв89180 0.0 1019945
22 апреля, чт
чт2223:00+17ссв810245 0.0 1020707
02:00+14ссв71033100 0.0 1020563
05:00+13с6946100 0.0 1021435
08:00+14ссв56390 0.0 1022408
11:00+19ссв55230 0.0 10231043
14:00+23ссв45141 0.0 10221300
17:00+25с55100 0.0 10201637
20:00+23с57145 0.0 1020162
23 апреля, пт
пт2323:00+20всв612235 0.0 1020374
02:00+17св7113140 0.0 1019316
05:00+14св573995 0.0 1019137
08:00+17всв4536100 0.0 1020211
11:00+24вюв33195 0.0 1019753
14:00+28вюв23126 0.0 10171766
17:00+29в44114 0.0 10151917
20:00+27всв341389 0.0 101668
24 апреля, сб
сб2423:00+24всв34155 0.0 101636
02:00+21в452197 0.0 101559
05:00+20всв3323100 0.0 101623
08:00+22всв112080 0.0 1017108
11:00+27ссз0113100 0.0 1018826
14:00+30ссз2295 0.0 10162069
17:00+31ссв32870 0.0 10152208
20:00+28всв451098 0.0 101685
25 апреля, вс
вс2523:00+26всв3411100 0.0 101633
02:00+25всв3311100 0.0 101522
05:00+22всв3314100 0.0 101522
08:00+24всв341477 0.0 1017160
11:00+30ссв34998 0.0 10171048
14:00+32ссв5575 0.0 10151673
17:00+33ссв66727 0.0 10141757
20:00+30св581160 0.0 1014145